This is the latest recevied weather packets stored in our database for station/object 9M4GHZ-13. If no packets are shown the sender has not sent any weather packets the latest 10 day(s).
| Time | Temp. | Humidity | Pressure | Rain* | Wind** | Luminosity | Snow |
|---|---|---|---|---|---|---|---|
| 1777543805 | 28.33° C | 85% | 1007.3 hPa | - | - | - | - |
| 1777543204 | 28.89° C | 83% | 1007.4 hPa | - | - | - | - |
| 1777542603 | 28.89° C | 82% | 1007.4 hPa | - | - | - | - |
| 1777542005 | 28.89° C | 81% | 1006.8 hPa | - | - | - | - |
| 1777541404 | 28.89° C | 82% | 1006.6 hPa | - | - | - | - |
| 1777540804 | 28.89° C | 81% | 1006.7 hPa | - | - | - | - |
| 1777540204 | 29.44° C | 83% | 1007 hPa | - | - | - | - |
| 1777539604 | 28.89° C | 83% | 1007 hPa | - | - | - | - |
| 1777539004 | 29.44° C | 82% | 1006.9 hPa | - | - | - | - |
| 1777538404 | 30° C | 80% | 1006.8 hPa | - | - | - | - |
| 1777537804 | 30° C | 79% | 1007 hPa | - | - | - | - |
| 1777537204 | 30° C | 80% | 1006.8 hPa | - | - | - | - |
| 1777536605 | 30° C | 79% | 1007 hPa | - | - | - | - |
| 1777536004 | 29.44° C | 79% | 1007 hPa | - | - | - | - |
| 1777535404 | 30° C | 79% | 1007.1 hPa | - | - | - | - |
| 1777534805 | 30° C | 79% | 1007.3 hPa | - | - | - | - |
| 1777534204 | 30° C | 78% | 1007 hPa | - | - | - | - |
| 1777533604 | 30° C | 77% | 1007.1 hPa | - | - | - | - |
| 1777533004 | 30° C | 77% | 1007.1 hPa | - | - | - | - |
| 1777532403 | 30° C | 76% | 1007 hPa | - | - | - | - |
| 1777531803 | 30° C | 77% | 1007.2 hPa | - | - | - | - |
| 1777531204 | 30.56° C | 76% | 1007.4 hPa | - | - | - | - |
| 1777530606 | 30.56° C | 74% | 1007.7 hPa | - | - | - | - |
| 1777530004 | 31.11° C | 68% | 1007.7 hPa | - | - | - | - |
| 1777529404 | 31.67° C | 64% | 1007.8 hPa | - | - | - | - |
* Rain since midnight (hover to see other rain measurements)
** Current wind speed in m/s (hover to see current wind gust speed)